• MPC Preparation (Info)

  • MPEC 2020-U245 : 2020 UG6

    The following Minor Planet Electronic Circular may be linked-to from your own Web pages, but must not otherwise be redistributed electronically.

    A form allowing access to any MPEC is at the bottom of this page.


    Read MPEC 2020-U244 Read MPEC 2020-U246


    M.P.E.C. 2020-U245                             Issued 2020 October 27, 06:21 UT
    
         The Minor Planet Electronic Circulars contain information on unusual
             minor planets and routine data on comets.  They are published
        on behalf of Division F of the International Astronomical Union by the
              Minor Planet Center, Smithsonian Astrophysical Observatory,
                              Cambridge, MA 02138, U.S.A.
    
                 Prepared using the Tamkin Foundation Computer Network
    
                                  MPC@CFA.HARVARD.EDU
                URL https://www.minorplanetcenter.net/    ISSN 1523-6714
    
                                    2020 UG6                                 
    
    
    Observations:
         K20U06G* C2020 10 24.25187000 18 30.77 +34 52 57.3          20.85GVEU245G96
         K20U06G  C2020 10 24.25967400 18 34.27 +34 51 32.2          20.93GVEU245G96
         K20U06G  C2020 10 24.26817500 18 38.11 +34 49 59.7          20.74GVEU245G96
         K20U06G KC2020 10 24.34453500 19 13.02 +34 35 57.7          20.79GVEU245I52
         K20U06G KC2020 10 24.34708600 19 14.16 +34 35 29.3          20.64GVEU245I52
         K20U06G KC2020 10 24.34963600 19 15.33 +34 35 01.1          21.05GVEU245I52
         K20U06G KC2020 10 24.35218700 19 16.51 +34 34 33.1          21.04GVEU245I52
         K20U06G KC2020 10 27.23131600 42 26.88 +24 47 34.3          20.20GVEU245G96
         K20U06G KC2020 10 27.23502200 42 28.51 +24 46 44.1          19.71GVEU245G96
         K20U06G KC2020 10 27.23687900 42 29.42 +24 46 19.2          20.41GVEU245G96
    
    Observer details:
    G96 Mt. Lemmon Survey.  Observer T. A. Pruyne.  Measurers E. J. Christensen,
        G. A. Farneth, D. C. Fuls, A. R. Gibbs, A. D. Grauer, H. Groeller, R. A.
        Kowalski, S. M. Larson, G. J. Leonard, T. A. Pruyne, D. Rankin, R. L.
        Seaman, F. C. Shelly, K. W. Wierzchos.  1.5-m reflector + 10K CCD.
    I52 Steward Observatory, Mt. Lemmon Station.  Observer R. A. Kowalski.
        Measurers E. J. Christensen, G. A. Farneth, D. C. Fuls, A. R. Gibbs, A. D.
        Grauer, H. Groeller, R. A. Kowalski, S. M. Larson, G. J. Leonard, T. A.
        Pruyne, D. Rankin, R. L. Seaman, F. C. Shelly, K. W. Wierzchos.  1.0-m
        reflector + CCD.
    
    Orbital elements:
    2020 UG6                                                 Earth MOID = 0.1109 AU
    Epoch 2020 Dec. 17.0 TT = JDT 2459200.5                 Bell                    
    M  14.32708              (2000.0)            P               Q                  
    n   0.32987229     Peri.  183.23925     +0.77500367     -0.56805137             
    a   2.0744620      Node   216.30628     +0.58981398     +0.80751837             
    e   0.4678420      Incl.   27.88491     +0.22691139     -0.15884497             
    P   2.99           H   23.95          G   0.15           U   9                  
    Residuals in seconds of arc
    201024 G96  0.3+  0.2-    201024 I52  0.1+  0.3-    201027 G96  0.5-  0.2-
    201024 G96  0.1-  0.1-    201024 I52  0.0-  0.2-    201027 G96  0.5+  0.1-
    201024 G96  0.3-  0.3+    201024 I52  0.1+  0.1+
    201024 I52  0.5+  0.2-    201027 G96  0.1+  0.3+
    
    Ephemeris:
    2020 UG6                 a,e,i = 2.07, 0.47, 28                  q = 1.1039
    Date    TT    R. A. (2000) Decl.     Delta      r    Elong.  Phase     V
    2020 09 27    21 53 16.6 +62 15 37   0.3370  1.1795   113.8    51.0    23.8
    ...
    2020 10 12    22 51 08.9 +56 16 37   0.2145  1.1322   124.1    46.9    22.7
    ...
    2020 10 20    23 45 08.5 +45 30 36   0.1568  1.1159   137.2    37.3    21.7
    ...
    2020 10 26    00 32 33.9 +29 13 19   0.1260  1.1081   153.3    23.8    20.8
    2020 10 27    00 40 35.3 +25 39 17   0.1227  1.1072   156.1    21.3    20.7
    2020 10 28    00 48 33.9 +21 52 38   0.1201  1.1064   158.7    19.0    20.5
    ...
    2020 11 03    01 33 59.6 -02 28 50   0.1204  1.1040   157.1    20.4    20.6
    ...
    2020 11 11    02 23 43.8 -26 33 23   0.1577  1.1071   134.9    39.3    21.7
    ...
    2020 11 26    03 23 11.0 -42 39 37   0.2730  1.1319   115.6    51.8    23.3
    
    M. P. C. Staff               (C) Copyright 2020 MPC           M.P.E.C. 2020-U245
    


    Read MPEC 2020-U244 Read MPEC 2020-U246


    MPEC number:

    Enter an MPEC number in one of the following forms:

    • 1997-B01 (the full form)
    • J97B01 (the packed version of the full form)
    • B01 (the abbreviated form)